[[{"header":{"parameterUnit":"m.s-1","parameterCategory":1,"la1":30.2991,"la2":30.254,"lo1":-89.0895,"lo2":-89.0444,"dy":0.0017,"dx":0.0017,"nx":28,"ny":28,"refTime":"2025-03-13T09:00:00:Z","depth":0,"parameterNumber":2,"parameterNumberName":"U-component_of_WINDS"},"data":[0,0,0,0,0,0,0,0,0,0,0,0,0,0,0,0,0,0,0,0,0,0,0,0,0,0,0,0,0,0,0,0,0,0,0,0,0,0,0,0,0,0,0,0,0,0,0,0,0,0,0,0,0,0,0,0,0,0,-1.3336,-1.3337,0,-1.3402,-1.3403,-1.3403,-1.346,-1.346,-1.3461,-1.3462,-1.3528,-1.3529,-1.353,0,0,0,0,0,0,0,0,0,0,0,0,0,-1.3258,-1.3259,-1.3336,-1.3337,-1.3338,-1.3402,-1.3403,-1.3403,-1.346,-1.346,-1.3461,-1.3462,-1.3528,-1.3529,-1.3531,0,0,0,0,0,0,0,0,0,0,0,0,0,-1.3305,-1.326,-1.3336,-1.3373,-1.3377,-1.3401,-1.3403,-1.3404,-1.346,-1.346,-1.3461,-1.3462,-1.3527,-1.3529,-1.3531,-1.3523,0,0,-1.3536,-1.3537,0,0,0,0,0,0,0,0,-1.3302,-1.3308,-1.3367,-1.3371,-1.3375,-1.3424,-1.34,-1.3444,-1.3459,-1.3428,-1.3462,-1.3463,-1.3493,-1.3497,-1.3507,-1.3526,-1.3529,-1.3536,-1.3537,-1.3538,-1.3539,0,0,0,0,0,0,0,-1.3299,-1.3305,-1.3362,-1.3368,-1.3373,-1.3387,-1.3394,-1.3408,-1.3454,-1.3431,-1.3435,-1.3442,-1.3495,-1.3506,-1.3509,-1.353,-1.3536,-1.3538,-1.3539,-1.354,-1.3544,-1.3543,0,0,0,0,0,0,-1.329,-1.3302,-1.336,-1.3364,-1.334,-1.3387,-1.3396,-1.3407,-1.3454,-1.3462,-1.3442,-1.3445,-1.3502,-1.3507,-1.3512,-1.3505,-1.3538,-1.354,-1.3541,-1.3545,-1.3544,-1.3543,0,0,0,0,0,0,-1.3288,-1.3295,-1.3357,-1.3334,-1.3343,-1.3388,-1.34,-1.3408,-1.3419,-1.3462,-1.3471,-1.3444,-1.3503,-1.3509,-1.352,-1.3508,-1.3541,-1.3542,-1.3546,-1.3545,-1.3543,-1.3491,0,0,0,0,0,0,-1.3286,-1.3294,-1.3291,-1.3334,-1.3344,-1.3364,-1.3399,-1.3409,-1.3422,-1.3426,-1.3467,-1.3474,-1.3504,-1.3517,-1.3521,-1.3511,-1.3544,-1.3547,-1.3545,-1.3544,-1.3494,-1.3488,-1.3483,0,0,0,0,0,-1.3283,-1.3274,-1.3291,-1.3297,-1.3342,-1.3363,-1.3369,-1.3404,-1.342,-1.3418,-1.3446,-1.3473,-1.3509,-1.3517,-1.3523,-1.3513,-1.3548,-1.3546,-1.3544,-1.3496,-1.3489,-1.3483,0,0,0,0,0,0,-1.3228,-1.328,-1.3299,-1.3304,-1.3329,-1.3372,-1.3371,-1.3395,-1.3416,-1.3419,-1.3462,-1.347,-1.3475,-1.3496,-1.3504,-1.3508,-1.3532,-1.3531,-1.3494,-1.3487,-1.3482,-1.3477,-1.3545,0,0,0,0,0,-1.3217,-1.323,-1.3274,-1.3274,-1.3285,-1.3326,-1.3336,-1.3361,-1.3388,-1.3399,-1.3428,-1.3453,-1.347,-1.348,-1.3498,-1.3498,-1.3507,-1.3494,-1.3488,-1.3483,-1.3482,-1.3482,-1.3477,-1.3536,-1.3536,-1.3536,0,0,-1.3193,-1.3223,-1.3229,-1.3264,-1.3286,-1.3298,-1.3334,-1.3345,-1.3354,-1.3401,-1.3412,-1.3433,-1.3464,-1.3469,-1.3472,-1.3486,-1.3468,-1.3481,-1.3477,-1.3477,-1.3479,-1.3474,-1.3469,-1.3534,-1.3535,-1.3535,0,0,-1.3156,-1.3181,-1.3183,-1.3204,-1.3237,-1.3264,-1.3264,-1.3305,-1.3321,-1.3333,-1.3367,-1.3379,-1.3407,-1.3428,-1.3442,-1.3412,-1.3438,-1.3417,-1.3388,-1.3388,-1.3383,-1.3379,-1.3368,-1.3364,-1.3416,-1.3415,-1.3415,0,-1.3123,-1.3142,-1.3181,-1.319,-1.3204,-1.3246,-1.3249,-1.3268,-1.3304,-1.3313,-1.3328,-1.3364,-1.3388,-1.3398,-1.339,-1.3401,-1.3402,-1.3412,-1.3381,-1.3378,-1.3374,-1.3364,-1.336,-1.3413,-1.3413,-1.3413,-1.3414,0,-1.3099,-1.3112,-1.311,-1.3145,-1.3159,-1.3164,-1.3203,-1.3213,-1.3236,-1.3261,-1.3273,-1.3303,-1.3328,-1.3332,-1.3355,-1.3345,-1.3352,-1.3373,-1.3399,-1.3365,-1.3356,-1.3353,-1.3409,-1.341,-1.3411,-1.3411,0,0,-1.303,-1.3085,-1.3084,-1.31,-1.3139,-1.315,-1.3157,-1.3181,-1.3188,-1.3213,-1.3219,-1.3243,-1.3262,-1.3278,-1.3304,-1.3305,-1.3278,-1.3326,-1.3327,-1.3315,-1.3268,-1.3251,-1.3245,-1.3296,-1.3295,-1.3295,-1.3265,0,-1.2998,-1.3014,-1.3048,-1.3053,-1.3065,-1.3106,-1.3112,-1.3137,-1.3161,-1.3174,-1.3201,-1.3216,-1.3242,-1.3251,-1.3253,-1.3281,-1.3269,-1.3284,-1.3302,-1.3302,-1.3292,-1.3241,-1.3223,-1.3193,-1.3262,-1.3261,-1.3261,0,-1.2964,-1.2985,-1.2991,-1.3029,-1.3036,-1.3041,-1.3066,-1.3078,-1.3107,-1.3124,-1.3142,-1.3171,-1.318,-1.3204,-1.3218,-1.3227,-1.3236,-1.3251,-1.3251,-1.3253,-1.3278,-1.3241,-1.3185,-1.318,-1.3256,-1.3256,-1.3256,0,-1.2911,-1.2942,-1.2949,-1.2962,-1.3007,-1.3009,-1.3028,-1.3058,-1.307,-1.3092,-1.31,-1.3122,-1.3134,-1.3151,-1.3185,-1.3199,-1.3194,-1.3221,-1.3208,-1.3207,-1.3205,-1.3204,-1.3148,-1.3212,-1.3212,-1.3212,-1.3212,0,-1.2872,-1.2874,-1.2926,-1.293,-1.2933,-1.2973,-1.2975,-1.2997,-1.3023,-1.3032,-1.3069,-1.3077,-1.3122,-1.3135,-1.3162,-1.3168,-1.3174,-1.3187,-1.3194,-1.3183,-1.3181,-1.319,-1.3192,-1.3211,-1.3211,-1.3212,-1.3212,0,-1.2814,-1.2849,-1.2859,-1.2901,-1.2911,-1.2911,-1.2947,-1.2953,-1.2979,-1.299,-1.2995,-1.3036,-1.3053,-1.3088,-1.3115,-1.3133,-1.3133,-1.3146,-1.3123,-1.3127,-1.3112,-1.3113,-1.3059,-1.3053,-1.3121,-1.312,-1.312,0,-1.2786,-1.2788,-1.283,-1.2839,-1.2856,-1.287,-1.2883,-1.2922,-1.2933,-1.2966,-1.2968,-1.2988,-1.3006,-1.3031,-1.3063,-1.3083,-1.3097,-1.3076,-1.31,-1.3089,-1.3095,-1.3094,-1.3094,-1.307,-1.307,-1.3069,-1.3068,0,-1.2733,-1.275,-1.2767,-1.2789,-1.2803,-1.2823,-1.2845,-1.285,-1.2894,-1.2905,-1.2923,-1.2937,-1.2964,-1.2983,-1.3009,-1.3028,-1.3055,-1.3061,-1.3059,-1.3047,-1.3033,-1.304,-1.3108,-1.3061,-1.3062,-1.3063,-1.3063,-1.3063,-1.2689,-1.2692,-1.2722,-1.2739,-1.276,-1.2779,-1.2786,-1.2813,-1.2828,-1.2854,-1.2876,-1.2892,-1.292,-1.2957,-1.2975,-1.2987,-1.3001,-1.2998,-1.2997,-1.2995,-1.299,-1.3032,-1.2992,-1.2992,-1.2993,-1.2993,-1.2993,0,-1.2637,-1.2658,-1.2674,-1.2702,-1.2716,-1.2741,-1.2766,-1.2775,-1.2788,-1.2813,-1.283,-1.285,-1.2869,-1.2902,-1.2923,-1.2927,-1.294,-1.2931,-1.2931,-1.2935,-1.2978,-1.2977,-1.292,-1.292,-1.292,-1.292,-1.292,-1.292,-1.2612,-1.2618,-1.2639,-1.2656,-1.2678,-1.2693,-1.2705,-1.2723,-1.2742,-1.2763,-1.2779,-1.2801,-1.2828,-1.2852,-1.287,-1.288,-1.2885,-1.2873,-1.2886,-1.2925,-1.2932,-1.2938,-1.2938,-1.2874,-1.2874,-1.2842,-1.2841,-1.2841]},{"header":{"parameterUnit":"m.s-1","parameterCategory":1,"la1":30.2991,"la2":30.254,"lo1":-89.0895,"lo2":-89.0444,"dy":0.0017,"dx":0.0017,"nx":28,"ny":28,"refTime":"2025-03-13T09:00:00:Z","depth":0,"parameterNumber":3,"parameterNumberName":"V-component_of_WINDS"},"data":[0,0,0,0,0,0,0,0,0,0,0,0,0,0,0,0,0,0,0,0,0,0,0,0,0,0,0,0,0,0,0,0,0,0,0,0,0,0,0,0,0,0,0,0,0,0,0,0,0,0,0,0,0,0,0,0,0,0,7.7718,7.7719,0,7.7863,7.7864,7.7866,7.7857,7.7855,7.7852,7.785,7.7989,7.7995,7.8,0,0,0,0,0,0,0,0,0,0,0,0,0,7.7425,7.743,7.7717,7.7719,7.7721,7.7862,7.7864,7.7866,7.7857,7.7854,7.7852,7.785,7.7987,7.7994,7.8001,0,0,0,0,0,0,0,0,0,0,0,0,0,7.7559,7.7432,7.7717,7.7734,7.7737,7.7862,7.7864,7.7867,7.7858,7.7854,7.7851,7.7848,7.7985,7.7993,7.8002,7.8117,0,0,7.8028,7.8031,0,0,0,0,0,0,0,0,7.7551,7.7569,7.773,7.7733,7.7736,7.7839,7.7812,7.795,7.7858,7.7811,7.785,7.7847,7.7941,7.7953,7.7987,7.8123,7.8129,7.8028,7.8033,7.8037,7.8039,0,0,0,0,0,0,0,7.7542,7.7563,7.7775,7.7732,7.7736,7.7731,7.7747,7.7838,7.7892,7.7815,7.7815,7.7833,7.7942,7.7978,7.799,7.8131,7.8028,7.8036,7.8041,7.8044,7.8372,7.8375,0,0,0,0,0,0,7.753,7.7555,7.777,7.7779,7.7634,7.7739,7.7757,7.7809,7.7891,7.79,7.7835,7.7832,7.7966,7.798,7.7995,7.8137,7.8037,7.8045,7.805,7.8368,7.8372,7.8376,0,0,0,0,0,0,7.7524,7.7549,7.7764,7.7667,7.7694,7.7748,7.7806,7.7813,7.785,7.7906,7.7915,7.7863,7.7964,7.7983,7.8088,7.8142,7.8049,7.8056,7.8364,7.8369,7.8374,7.8421,0,0,0,0,0,0,7.7515,7.7547,7.7593,7.7669,7.77,7.7857,7.781,7.7818,7.7866,7.7862,7.7935,7.7943,7.7963,7.8075,7.8096,7.8152,7.8063,7.8359,7.8366,7.8373,7.8415,7.8428,7.8438,0,0,0,0,0,7.7505,7.7598,7.7596,7.7621,7.7759,7.7861,7.7878,7.7901,7.787,7.7916,7.7952,7.7941,7.8132,7.8086,7.811,7.8168,7.8356,7.8364,7.8372,7.841,7.8425,7.8438,0,0,0,0,0,0,7.7523,7.7608,7.7606,7.7727,7.7787,7.7859,7.7917,7.7916,7.7984,7.7978,7.8,7.8017,7.8123,7.8155,7.8103,7.8285,7.824,7.8253,7.826,7.8275,7.8287,7.8277,7.807,0,0,0,0,0,7.7542,7.7621,7.7689,7.7788,7.7819,7.7863,7.7908,7.7922,7.7983,7.8008,7.8052,7.811,7.8183,7.823,7.8301,7.8419,7.8435,7.8471,7.8483,7.8492,7.8504,7.8571,7.8588,7.8403,7.8403,7.8403,0,0,7.758,7.7636,7.7683,7.7794,7.7842,7.7921,7.7885,7.7969,7.8027,7.8019,7.8123,7.8157,7.8223,7.8337,7.8388,7.8367,7.8558,7.8503,7.851,7.8516,7.8581,7.8598,7.8614,7.8409,7.8408,7.8407,0,0,7.7691,7.7741,7.7831,7.7881,7.7956,7.7986,7.8007,7.808,7.8104,7.8209,7.8206,7.8273,7.8398,7.8447,7.8488,7.8619,7.8612,7.8641,7.8702,7.8767,7.8781,7.8794,7.8843,7.886,7.8652,7.8652,7.8652,0,7.7728,7.785,7.7876,7.7964,7.8012,7.8013,7.8103,7.8149,7.8242,7.8274,7.825,7.841,7.8453,7.8579,7.8612,7.8644,7.8669,7.8633,7.8778,7.8791,7.8804,7.885,7.8868,7.8655,7.8655,7.8654,7.8654,0,7.7893,7.7978,7.8041,7.8136,7.8191,7.8279,7.8317,7.8369,7.8377,7.8408,7.8515,7.8569,7.8651,7.8682,7.8688,7.8809,7.8794,7.8773,7.8728,7.8824,7.8868,7.8886,7.866,7.8659,7.8658,7.8657,0,0,7.8019,7.813,7.8153,7.8197,7.828,7.8345,7.8432,7.8517,7.8562,7.8625,7.87,7.8807,7.879,7.8836,7.8848,7.8905,7.9009,7.8878,7.888,7.8902,7.9146,7.9163,7.9183,7.9004,7.9007,7.901,7.9141,0,7.814,7.83,7.8327,7.8466,7.8545,7.8547,7.8623,7.8682,7.8713,7.8783,7.8815,7.8893,7.8863,7.8891,7.8948,7.8984,7.9058,7.8975,7.9072,7.9075,7.9058,7.9206,7.9223,7.9344,7.9158,7.9161,7.9164,0,7.8302,7.8376,7.8524,7.86,7.8634,7.8703,7.8784,7.885,7.8916,7.8935,7.8989,7.8995,7.9084,7.9035,7.9158,7.9101,7.9142,7.9166,7.9171,7.9182,7.9126,7.9222,7.9383,7.9402,7.9191,7.9188,7.9187,0,7.8382,7.8517,7.8625,7.8662,7.8752,7.8801,7.884,7.8903,7.8953,7.9022,7.9055,7.9132,7.9174,7.9233,7.9259,7.9221,7.9381,7.9333,7.9399,7.9399,7.9434,7.9431,7.9605,7.9457,7.9457,7.9456,7.9456,0,7.8516,7.8607,7.8662,7.8728,7.883,7.8859,7.8958,7.8996,7.9052,7.9124,7.9128,7.9195,7.9225,7.9296,7.9316,7.9417,7.9434,7.9452,7.9456,7.9453,7.9451,7.9481,7.9474,7.9461,7.946,7.9459,7.9458,0,7.8622,7.8663,7.8781,7.8858,7.888,7.8952,7.9017,7.908,7.9112,7.9203,7.9225,7.9274,7.9358,7.939,7.949,7.9504,7.9621,7.9617,7.96,7.9602,7.9666,7.966,7.9867,7.9896,7.9727,7.9728,7.9729,0,7.8706,7.8777,7.8864,7.8914,7.8957,7.9037,7.9089,7.912,7.9174,7.9256,7.9309,7.9394,7.9463,7.9596,7.9639,7.9716,7.9716,7.9783,7.9727,7.9722,7.972,7.9716,7.9724,7.9794,7.9795,7.9797,7.9798,0,7.885,7.8868,7.8945,7.9031,7.9094,7.9161,7.9227,7.9267,7.9307,7.9367,7.9455,7.951,7.9615,7.9699,7.9779,7.9816,7.9814,7.9815,7.9835,7.9833,7.9821,7.983,7.963,7.981,7.9809,7.9808,7.9808,7.9807,7.8949,7.9014,7.9086,7.9172,7.9226,7.9288,7.9352,7.9394,7.9469,7.956,7.9573,7.9667,7.9732,7.984,7.9881,7.9954,7.9936,7.9964,7.9971,7.9978,7.9984,7.9808,7.9968,7.9968,7.9968,7.9967,7.9967,0,7.9096,7.9144,7.9223,7.9317,7.9385,7.938,7.9453,7.9509,7.9594,7.9656,7.9726,7.9828,7.991,7.996,8.0042,8.009,8.0092,8.0111,8.0108,8.0118,7.9994,7.997,8.0109,8.0109,8.0109,8.0109,8.0109,8.0109,7.918,7.929,7.9317,7.9453,7.9498,7.9595,7.9637,7.9693,7.9744,7.9859,7.9929,7.9962,8.002,8.0106,8.0181,8.0193,8.0224,8.0245,8.0256,8.014,8.0126,8.0112,8.009,8.0251,8.0251,8.0374,8.0375,8.0376]}]]